Temp
10 10 10 9 9 9 8 7 8 9 10 10 10 10 11 10 11 9 9 9 8 8 7 7 6 5 5 5 5 4 4 5 2 0 -0 -0 -0 -0 -1 0 -1 -1 -2
10 9 9 8 8 8 8 7 6 7 8 9 9 10 10 10 10 9 9 9 8 8 7 7 6 5 4 4 4 4 4 5 1 -1 -2 -2 -1 -1 -1 -1 -2 -3 -3
9 8 8 8 7 6 6 5 5 6 6 7 7 9 9 9 9 9 9 9 8 8 7 7 6 5 4 4 4 3 4 4 2 -1 -2 -2 -2 -2 -2 -2 -3 -4 -4
8 7 7 6 5 4 3 3 3 4 4 5 6 7 8 9 8 9 9 9 8 8 7 7 6 5 5 4 4 3 2 2 -0 -1 -2 -2 -3 -3 -3 -3 -4 -4 -4
7 6 5 4 3 2 2 2 2 2 2 3 4 5 6 7 8 8 9 8 8 8 7 6 6 5 5 5 4 2 1 1 -1 -1 -2 -3 -3 -3 -4 -4 -4 -5 -5
6 5 4 1 1 0 -0 -0 0 0 1 2 2 3 5 6 7 7 8 8 8 7 7 6 6 5 5 5 4 4 4 1 -0 -1 -2 -2 -3 -3 -4 -4 -5 -5 -5
5 4 1 0 -0 -0 -1 -1 -1 -0 0 1 1 2 3 4 6 6 7 7 7 7 7 6 6 5 4 3 3 2 2 3 3 -0 -1 -1 -3 -3 -4 -5 -5 -5 -5
3 1 0 -0 -1 -1 -1 -1 -1 -1 -1 -0 0 1 2 4 5 5 6 7 7 7 7 6 6 5 4 3 1 1 1 1 4 2 3 -1 -2 -2 -3 -4 -4 -5 -4
1 0 -0 -0 -1 -1 -1 -2 -1 -1 -1 -1 -0 0 2 3 4 5 5 6 6 6 6 6 5 4 3 2 1 1 0 -0 1 5 3 3 -0 -2 -2 -4 -5 -4 -6
0 0 -0 -1 -1 -1 -1 -2 -2 -2 -1 -1 -1 -0 1 1 3 4 5 4 4 4 4 4 4 3 3 1 1 0 -0 -1 -0 -0 -1 -2 -2 -3 -1 0 -3 -3 -6
2 2 1 0 -0 -1 -1 -2 -2 -2 -1 -1 -1 -1 -0 0 2 2 3 3 3 3 3 3 3 3 2 1 1 1 0 -1 1 -1 -2 -3 -4 -4 -3 -2 -2 -3 -3
1 1 1 1 1 -0 -1 -1 -2 -2 -1 -2 -2 -2 -1 -1 0 1 1 2 2 2 1 1 2 1 1 1 1 0 -0 -0 -1 -2 -3 -4 -4 -4 -4 -3 -3 -2 -1
0 1 1 1 1 0 -1 -1 -2 -2 -1 -2 -2 -2 -2 -1 -1 -0 0 0 0 1 0 1 0 -0 0 0 -0 -0 0 -1 -3 -3 -4 -4 -5 -5 -4 -3 -3 -2 -1
-1 -1 -0 0 0 0 -0 -1 -1 -2 -2 -2 -2 -2 -2 -2 -2 -1 -1 -1 -1 -1 -1 -1 -1 -1 -1 -2 -1 -0 -0 -2 -3 -4 -6 -7 -6 -5 -4 -3 -4 -3 -3
-2 -2 -1 -1 -1 -1 -1 -1 -1 -1 -2 -2 -2 -2 -2 -3 -3 -2 -1 -2 -2 -2 -3 -3 -3 -4 -4 -4 -4 -4 -3 -4 -4 -6 -6 -7 -7 -6 -5 -4 -4 -4 -4
-2 -2 -2 -2 -1 -1 -1 -1 -1 -1 -1 -2 -2 -2 -2 -2 -2 -2 -2 -2 -2 -3 -3 -4 -5 -5 -5 -6 -6 -6 -6 -5 -6 -6 -7 -7 -7 -6 -6 -6 -5 -4 -5
-2 -2 -2 -2 -2 -1 -1 -1 -2 -2 -2 -2 -2 -2 -2 -2 -3 -2 -2 -4 -4 -3 -4 -5 -6 -6 -6 -6 -6 -6 -7 -6 -6 -6 -7 -7 -7 -7 -7 -7 -6 -5 -7
-3 -3 -2 -2 -2 -2 -1 -1 -1 -2 -3 -3 -3 -2 -2 -2 -3 -3 -4 -4 -4 -4 -5 -5 -6 -6 -6 -6 -6 -6 -6 -7 -7 -7 -7 -7 -7 -7 -7 -7 -6 -6 -8
-3 -2 -3 -3 -2 -2 -2 -1 -1 -2 -2 -3 -3 -3 -3 -3 -3 -4 -4 -4 -5 -5 -5 -5 -6 -6 -6 -6 -6 -6 -6 -8 -7 -7 -7 -7 -6 -6 -8 -8 -7 -7 -7
-3 -3 -3 -3 -3 -2 -2 -1 -1 -2 -2 -3 -3 -3 -3 -3 -4 -4 -4 -4 -5 -5 -5 -5 -5 -6 -6 -5 -5 -6 -7 -7 -7 -7 -7 -6 -6 -6 -7 -7 -7 -8 -8
-3 -3 -3 -3 -3 -3 -2 -2 -1 -2 -3 -3 -3 -3 -3 -3 -4 -4 -4 -4 -4 -5 -5 -4 -5 -5 -5 -5 -6 -6 -6 -7 -6 -6 -6 -6 -6 -6 -6 -6 -7 -8 -8
-4 -3 -3 -3 -3 -3 -2 -2 -2 -1 -2 -3 -3 -3 -3 -3 -4 -4 -4 -4 -4 -3 -3 -3 -4 -4 -4 -4 -5 -5 -5 -6 -7 -6 -6 -6 -6 -6 -6 -7 -7 -8 -8
-4 -3 -3 -3 -3 -3 -2 -2 -2 -2 -2 -3 -3 -3 -3 -3 -4 -4 -4 -4 -4 -4 -3 -3 -3 -4 -4 -4 -4 -3 -4 -4 -4 -4 -4 -5 -6 -6 -6 -7 -7 -8 -8
-5 -4 -3 -3 -3 -3 -2 -2 -2 -2 -2 -2 -3 -3 -3 -3 -4 -4 -4 -4 -4 -4 -3 -3 -3 -4 -4 -4 -4 -4 -3 -3 -3 -4 -3 -4 -5 -6 -6 -7 -7 -8 -8
-6 -5 -4 -3 -3 -3 -2 -2 -2 -2 -2 -2 -3 -3 -3 -3 -3 -4 -4 -4 -4 -4 -4 -4 -4 -4 -4 -4 -4 -4 -4 -3 -3 -3 -4 -4 -5 -5 -6 -7 -7 -8 -8
-7 -6 -5 -4 -4 -3 -2 -2 -2 -2 -2 -2 -3 -3 -3 -3 -4 -4 -4 -4 -4 -5 -4 -5 -4 -4 -4 -4 -4 -4 -3 -3 -3 -4 -4 -5 -5 -6 -7 -7 -7 -8 -8
Height
702 703 704 702 701 698 698 698 698 696 695 693 695 698 698 703 703 713 715 719 723 728 731 736 741 747 759 766 774 779 791 799 809 824 830 836 845 850 859 866 868 873 879
702 703 701 700 698 696 695 696 693 691 690 689 690 690 694 694 695 699 703 705 710 720 726 727 732 740 752 759 762 767 784 790 799 815 825 833 840 848 858 864 868 873 879
701 699 698 695 693 691 690 691 690 688 688 687 686 683 684 688 688 690 698 701 701 707 715 720 723 730 740 750 758 764 770 782 789 806 817 829 836 846 856 863 869 873 879
699 698 696 694 693 691 689 686 684 685 684 683 681 679 679 680 682 684 688 693 697 702 704 710 716 721 729 739 747 754 764 772 790 800 811 822 831 844 853 858 869 874 877
696 695 694 691 689 688 686 683 681 679 678 677 676 675 675 674 674 676 680 686 689 696 701 701 706 713 720 726 734 745 756 764 780 794 805 815 825 835 839 851 861 870 877
693 692 692 689 689 688 685 683 681 679 677 674 671 669 667 668 668 671 671 675 681 687 692 695 700 706 712 716 721 728 735 747 767 777 791 801 815 822 831 839 849 861 874
693 692 691 690 688 684 682 679 678 676 673 670 666 663 659 657 659 661 664 668 672 677 683 688 695 698 702 710 717 723 731 738 747 758 773 787 800 807 820 834 844 852 859
692 693 692 689 685 682 680 676 673 671 668 665 661 658 655 653 653 655 656 660 662 668 671 677 685 690 697 703 713 721 729 739 746 755 762 775 786 798 812 823 833 848 858
693 693 691 688 686 683 679 675 672 669 665 661 657 653 649 646 645 647 650 653 657 661 666 669 675 678 688 694 705 716 728 740 749 752 764 771 783 792 807 822 833 843 855
695 694 691 689 686 682 679 677 673 669 665 661 655 652 647 644 642 643 645 648 653 658 662 665 669 674 682 690 699 709 722 732 743 755 766 775 782 794 800 812 822 831 842
696 693 691 688 684 681 678 675 673 668 665 661 656 653 648 644 641 641 642 644 648 653 656 661 667 671 679 687 692 704 714 728 737 751 764 774 784 793 804 814 822 825 833
696 693 690 686 682 680 677 674 672 668 665 662 658 655 651 648 645 644 644 644 648 651 655 660 666 673 681 687 695 704 716 726 735 750 764 774 779 789 800 813 818 828 837
697 693 687 684 681 678 675 673 671 668 665 662 660 659 656 653 651 649 649 649 651 653 656 662 670 679 683 690 696 704 717 727 737 748 764 772 778 782 794 810 818 827 838
698 692 688 683 679 675 673 671 669 666 664 662 661 660 659 657 656 655 655 656 655 658 663 669 675 682 687 693 700 710 720 731 739 749 759 768 777 784 796 807 814 824 835
697 692 688 683 678 673 670 667 666 664 663 662 661 661 660 660 660 659 658 659 660 662 667 673 678 684 691 699 707 716 724 733 743 749 758 769 780 783 797 805 813 823 827
697 692 688 682 677 672 667 664 663 662 661 660 660 660 661 661 662 663 663 663 664 667 672 678 686 691 697 705 712 721 728 734 742 754 762 770 777 785 794 805 812 817 825
697 693 687 682 676 671 665 663 661 661 660 660 660 660 661 662 664 666 667 669 671 672 676 683 689 696 702 708 715 722 730 737 745 754 765 773 778 785 793 803 810 815 823
697 692 686 681 675 670 664 661 660 660 660 660 661 661 662 664 667 669 671 673 678 680 682 687 693 698 703 710 716 723 731 740 750 757 764 771 777 782 792 802 807 810 817
695 689 685 679 674 669 664 660 659 659 660 661 662 663 664 666 669 671 674 676 679 683 686 690 694 701 707 713 718 725 733 741 748 755 763 770 777 782 791 798 803 809 815
692 687 682 677 672 667 663 660 659 658 659 660 662 663 666 669 671 674 676 678 681 684 689 693 699 704 709 713 719 727 735 742 748 755 762 768 775 781 787 793 800 806 814
691 686 681 675 671 666 663 661 658 657 658 659 660 661 664 667 670 673 676 679 682 686 689 693 699 704 709 714 721 727 734 740 747 753 759 766 772 778 785 791 798 805 813
690 685 679 674 669 665 661 659 657 656 656 657 658 660 663 665 669 672 675 678 682 685 688 692 697 702 707 713 718 725 731 738 745 751 756 763 769 776 782 789 798 805 812
689 684 678 673 668 663 660 657 656 655 653 654 656 658 661 663 666 669 673 676 681 684 688 692 697 702 707 712 717 723 728 734 740 747 753 760 767 774 780 787 795 802 809
687 683 678 672 667 662 658 655 653 652 652 652 653 655 657 660 663 666 669 674 678 682 686 691 696 701 706 711 716 722 727 733 739 745 751 756 764 771 778 786 792 798 807
686 682 677 672 667 661 656 653 650 649 649 649 650 651 654 657 659 663 667 671 676 680 684 689 694 699 703 708 713 719 725 731 737 743 749 756 761 767 775 782 789 797 805
684 681 677 672 666 661 655 650 647 646 645 646 647 648 650 653 655 658 663 667 672 677 681 686 690 695 700 705 711 716 722 728 735 741 747 753 759 766 773 780 787 794 801
Wind_Speed
15 17 19 18 17 17 18 14 15 21 26 27 30 29 35 35 30 34 34 32 34 36 37 39 40 38 35 39 40 31 19 17 14 15 23 40 35 32 30 27 26 25 21
14 15 15 15 17 18 17 17 15 15 17 21 29 32 33 36 37 41 39 37 38 36 35 38 37 41 38 38 41 40 35 27 23 26 31 37 37 34 34 31 28 25 22
11 11 13 18 21 22 22 22 17 16 15 16 20 25 29 31 33 38 36 34 35 40 38 37 38 43 40 39 39 39 40 30 28 28 31 33 35 38 36 31 27 25 21
6 9 12 15 17 19 20 21 18 16 18 20 17 20 26 29 32 31 35 35 33 38 43 43 40 46 44 43 39 39 39 37 34 34 36 34 37 39 35 33 28 25 24
5 9 15 17 18 18 18 21 21 20 19 19 21 23 23 24 26 37 37 35 33 35 37 39 44 50 51 51 46 41 42 41 36 37 33 35 34 37 35 33 30 29 24
7 13 16 19 17 17 15 15 15 14 16 18 21 25 26 27 28 29 30 34 33 32 36 39 41 49 52 55 56 62 59 52 43 39 37 38 38 40 35 41 38 31 17
9 14 16 16 16 17 17 17 17 18 18 20 19 21 27 28 31 29 32 33 29 33 34 35 35 41 48 52 53 59 55 58 60 52 45 42 42 45 42 38 35 31 19
13 14 15 18 21 20 19 18 20 20 20 21 20 22 24 27 31 29 30 32 28 32 34 38 39 36 43 48 48 47 49 53 55 52 55 49 46 52 49 45 40 29 21
16 15 18 19 17 19 18 19 21 21 22 22 22 21 20 23 29 26 26 29 26 30 34 37 36 40 48 51 46 41 38 36 44 48 47 47 49 56 51 45 37 33 16
15 16 18 16 15 16 17 19 17 18 20 20 18 16 14 17 22 23 25 23 25 25 28 32 39 45 52 55 49 45 39 39 38 37 35 39 47 52 52 49 48 35 24
20 20 20 18 17 16 18 17 18 16 15 14 11 9 6 7 12 11 20 26 26 24 25 27 32 41 55 53 51 48 45 45 44 42 41 41 42 44 43 40 43 40 33
23 22 21 21 20 18 16 17 15 13 11 9 8 7 7 5 5 14 20 26 28 30 25 27 30 45 48 46 43 43 50 48 43 38 36 35 38 39 36 38 39 35 30
23 21 22 25 23 19 15 15 15 11 9 6 5 5 8 9 11 9 14 21 24 27 29 33 41 38 46 45 48 54 51 42 39 36 31 31 34 44 43 39 36 33 22
23 24 24 21 24 24 19 14 13 12 9 5 1 2 6 9 12 15 20 23 28 32 35 37 37 35 37 42 47 46 42 40 37 34 32 35 39 43 43 41 39 34 31
22 22 22 21 21 21 20 16 13 13 12 9 7 6 7 8 11 16 19 25 30 35 37 34 30 31 30 29 30 32 36 36 34 36 41 39 36 42 42 41 40 38 25
22 21 23 23 22 22 18 16 13 11 12 10 9 10 8 8 12 15 19 25 35 38 28 25 22 24 26 26 29 28 32 36 36 36 36 38 39 41 42 39 39 34 35
21 21 21 21 22 22 18 13 7 6 6 8 8 10 11 11 12 16 19 29 29 28 24 21 22 23 24 25 28 30 28 32 38 41 40 36 37 38 40 35 35 34 32
22 21 19 20 21 21 18 14 11 9 6 4 7 10 11 14 15 22 28 27 20 20 21 23 23 24 26 28 29 32 33 34 35 38 39 39 39 42 37 36 35 34 33
23 22 22 20 20 21 19 15 11 11 10 9 10 11 15 17 20 23 24 20 19 19 21 23 26 27 26 28 31 33 36 35 38 40 39 41 42 41 33 33 33 33 35
23 24 23 20 19 17 16 14 10 11 12 13 13 14 18 21 17 17 17 20 20 21 23 26 26 28 29 32 33 35 36 37 37 39 40 41 40 40 38 37 35 35 30
23 23 23 19 18 16 14 14 13 12 13 14 16 20 25 22 20 20 21 22 23 25 25 25 26 27 29 32 34 36 36 37 37 38 40 40 39 37 35 35 35 32 33
23 23 23 20 18 16 13 13 13 13 15 15 16 20 25 22 22 22 23 22 23 23 23 24 26 27 29 31 33 34 35 38 38 38 38 38 37 35 34 35 35 34 33
22 22 23 21 19 17 14 14 12 12 13 17 19 19 22 20 22 23 24 24 24 24 23 23 24 27 27 29 31 33 36 38 38 37 38 37 36 35 35 35 36 34 34
20 21 21 22 20 19 15 14 13 13 14 18 20 21 22 22 23 24 25 26 25 23 23 23 24 28 30 31 31 30 32 34 36 36 35 37 36 35 34 34 35 35 36
19 20 20 21 22 21 18 16 16 17 15 18 19 20 22 23 23 25 27 27 27 28 28 27 27 27 28 31 31 31 31 30 31 32 32 34 34 33 35 34 34 35 35
18 19 20 21 22 23 21 18 17 16 16 18 20 21 23 24 25 28 30 30 29 29 30 28 27 27 27 28 29 30 30 28 28 30 31 32 32 33 34 34 34 35 35
Wind_Direction
306 312 313 320 324 325 324 317 297 280 266 257 250 241 233 232 222 223 211 205 201 200 197 194 193 188 184 182 178 175 174 153 142 142 160 169 166 166 162 165 158 155 146
304 306 319 327 329 325 324 325 322 301 289 273 247 239 234 226 219 215 211 207 203 204 203 193 185 183 182 180 175 177 181 178 147 145 151 160 164 168 162 159 156 152 149
301 324 339 345 341 335 328 323 319 313 300 289 279 252 233 230 217 212 210 208 205 206 202 194 185 180 177 180 178 176 177 173 160 152 152 156 154 165 160 160 159 151 149
305 332 342 347 338 330 322 320 322 312 296 290 281 272 257 236 226 218 213 212 209 206 203 202 192 185 182 180 176 169 165 160 155 147 149 150 153 160 159 150 149 155 147
317 349 347 347 347 343 333 329 323 318 310 300 289 271 261 256 237 219 222 217 214 211 205 198 196 194 192 184 173 167 161 150 150 149 152 156 157 160 162 162 154 154 157
357 1 352 355 348 338 331 327 320 316 310 303 291 282 261 252 246 234 215 213 219 218 205 201 199 195 193 189 183 183 176 160 161 160 160 162 168 169 164 163 156 156 154
12 2 357 351 342 342 337 333 329 328 329 321 308 283 266 256 252 240 239 226 224 221 217 206 205 195 190 184 179 178 174 175 174 163 163 171 168 171 165 162 161 161 156
19 11 360 355 349 344 337 335 336 334 334 325 315 301 272 253 250 245 236 236 226 220 213 210 205 191 186 178 172 167 167 170 174 172 174 173 173 171 173 167 158 152 157
18 4 360 359 344 340 339 337 336 333 333 331 328 311 285 263 254 245 236 229 225 219 214 208 199 187 181 171 166 162 159 162 169 179 180 181 180 175 169 157 155 149 136
1 357 0 357 352 344 338 331 326 330 328 328 329 317 296 273 258 242 235 210 200 194 193 187 182 177 178 170 164 156 153 155 159 161 157 162 168 171 181 185 169 163 142
347 346 345 346 347 347 340 330 323 326 329 331 338 339 327 295 272 251 220 198 181 169 170 177 183 185 173 165 162 160 160 156 156 152 148 149 154 160 170 179 175 173 160
344 336 335 338 341 337 330 329 319 320 327 340 354 19 48 80 151 172 180 192 177 166 156 164 175 166 161 155 151 154 152 149 143 140 143 150 153 158 166 178 176 181 177
344 332 325 331 327 326 317 310 310 309 314 332 4 38 57 84 104 152 167 153 161 157 159 165 157 153 153 154 153 153 154 145 143 141 150 152 156 162 169 172 172 174 175
339 336 333 321 316 316 313 297 292 289 289 293 297 95 103 108 123 132 129 128 128 125 128 129 134 136 136 133 138 148 154 155 150 148 148 153 157 157 162 169 163 159 151
337 336 330 330 321 307 300 290 280 284 276 265 242 202 167 144 152 146 149 136 135 133 127 123 117 116 116 119 127 137 144 147 149 154 151 149 149 153 159 166 166 162 157
334 332 328 321 316 311 297 284 282 271 275 269 261 238 217 201 164 159 154 153 147 142 126 121 120 126 129 132 130 131 142 149 150 150 148 151 152 155 158 164 167 166 157
328 324 322 323 321 317 303 270 246 269 259 264 257 230 225 190 169 158 159 145 141 141 125 127 130 133 134 135 136 139 136 147 156 154 155 155 154 155 157 158 162 164 157
334 330 323 321 322 319 313 280 241 209 197 203 207 202 198 178 164 151 146 142 130 131 131 134 134 135 136 138 141 145 149 153 155 156 158 158 158 158 156 161 164 159 157
337 333 328 322 324 322 321 293 242 212 200 182 176 182 178 171 163 161 155 148 136 131 136 135 141 143 143 145 150 152 156 158 160 159 160 163 164 163 160 163 165 165 161
333 334 332 328 327 325 327 298 244 205 191 184 177 170 165 155 153 155 163 161 150 149 155 154 154 154 156 159 161 162 162 163 164 165 166 169 170 172 167 168 169 164 163
329 335 330 329 326 324 319 304 272 219 196 195 195 188 178 169 167 172 174 175 171 169 170 170 170 169 170 169 168 168 168 167 171 172 172 174 176 174 176 174 172 170 173
328 332 335 323 322 320 313 309 293 241 209 197 197 195 191 181 176 179 189 190 190 187 184 180 180 181 183 183 180 179 177 176 178 178 177 177 178 178 177 177 177 177 176
331 324 338 333 325 315 310 304 290 275 221 205 200 191 187 186 184 185 192 198 197 192 191 190 189 189 191 191 192 192 188 187 185 183 180 179 180 181 180 180 181 178 177
334 326 328 334 328 322 307 302 286 273 243 213 201 195 192 192 189 190 195 204 202 202 201 201 204 201 198 196 195 194 194 192 190 187 186 182 183 183 183 187 186 185 186
335 330 326 329 330 326 315 299 288 274 250 218 206 200 198 195 191 190 194 207 209 207 205 204 205 204 204 200 198 196 196 195 192 191 190 190 188 186 190 191 190 190 192
335 329 327 324 331 329 324 308 283 267 243 226 215 209 203 196 195 190 192 198 203 207 206 205 206 206 203 203 201 198 198 197 197 196 193 193 192 191 194 194 192 193 194